TimePST,TemperatureF,Dew PointF,Humidity,Sea Level PressureIn,VisibilityMPH,Wind Direction,Wind SpeedMPH,Gust SpeedMPH,PrecipitationIn,Events,Conditions,WindDirDegrees,DateUTC
12:53 AM,21.9,19.9,92,30.03,10.0,Variable,3.5,-,N/A,,Clear,0,2013-02-21 08:53:00
1:53 AM,21.0,19.0,92,30.05,10.0,Calm,Calm,-,N/A,,Clear,0,2013-02-21 09:53:00
2:53 AM,19.4,17.6,93,29.98,10.0,Calm,Calm,-,N/A,,Clear,0,2013-02-21 10:53:00
3:53 AM,19.9,17.1,89,30.06,10.0,Calm,Calm,-,N/A,,Overcast,0,2013-02-21 11:53:00
4:53 AM,21.9,18.0,85,30.09,10.0,Calm,Calm,-,N/A,,Overcast,0,2013-02-21 12:53:00
5:53 AM,21.0,17.1,85,30.10,10.0,Calm,Calm,-,N/A,,Scattered Clouds,0,2013-02-21 13:53:00
6:53 AM,21.9,19.9,92,30.11,10.0,Calm,Calm,-,N/A,,Overcast,0,2013-02-21 14:53:00
7:53 AM,25.0,21.0,85,30.11,10.0,Calm,Calm,-,N/A,,Overcast,0,2013-02-21 15:53:00
8:53 AM,30.0,25.0,82,30.11,10.0,North,4.6,-,N/A,,Overcast,360,2013-02-21 16:53:00
9:53 AM,34.0,26.1,73,30.11,10.0,NNE,6.9,-,N/A,,Overcast,20,2013-02-21 17:53:00
10:53 AM,36.0,23.0,59,30.10,10.0,NNE,5.8,-,N/A,,Overcast,30,2013-02-21 18:53:00
11:53 AM,37.0,23.0,57,30.10,10.0,Variable,4.6,-,N/A,,Overcast,0,2013-02-21 19:53:00
12:53 PM,37.0,21.9,54,30.09,10.0,North,4.6,-,N/A,,Overcast,350,2013-02-21 20:53:00
1:53 PM,37.0,21.0,52,30.09,10.0,West,3.5,-,N/A,,Mostly Cloudy,280,2013-02-21 21:53:00
2:53 PM,37.0,21.9,54,30.08,10.0,North,4.6,-,N/A,,Overcast,350,2013-02-21 22:53:00
3:53 PM,34.0,25.0,70,30.09,10.0,NW,10.4,-,N/A,,Overcast,320,2013-02-21 23:53:00
4:53 PM,33.1,27.0,78,30.10,10.0,NNW,5.8,-,0.00,,Overcast,330,2013-02-22 00:53:00
5:53 PM,30.9,27.0,85,30.11,10.0,ESE,3.5,-,0.00,,Overcast,120,2013-02-22 01:53:00
6:53 PM,30.0,27.0,88,30.12,10.0,SW,5.8,-,0.00,,Overcast,220,2013-02-22 02:53:00
7:53 PM,28.4,26.6,93,30.03,10.0,ESE,4.6,-,N/A,,Overcast,120,2013-02-22 03:53:00
8:53 PM,28.9,28.0,96,30.10,10.0,Calm,Calm,-,N/A,,Overcast,0,2013-02-22 04:53:00
9:53 PM,28.9,27.0,92,30.11,9.0,Calm,Calm,-,N/A,,Overcast,0,2013-02-22 05:53:00
11:53 PM,27.0,26.1,96,30.11,9.0,SSW,3.5,-,N/A,,Scattered Clouds,210,2013-02-22 07:53:00